Weather History for LIEE - November, 2011

Change the Weather History Date:

Sunday, November 13, 2011

  Actual Average Record
Temperature  
Mean Temperature 58 °F -  
Max Temperature 66 °F 62 °F 71 °F (1996)
Min Temperature 49 °F 47 °F 48 °F (1997)
Degree Days  
Heating Degree Days 8    
Growing Degree Days 8 (Base 50)    
Moisture  
Dew Point 50 °F    
Average Humidity 79    
Maximum Humidity 94    
Minimum Humidity 49    
Precipitation  
Precipitation 0.00 in 0.07 in - ()
Sea Level Pressure  
Sea Level Pressure 30.30 in    
Wind  
Wind Speed 4 mph ()    
Max Wind Speed 13 mph    
Max Gust Speed -    
Visibility 6.2 miles    
Events      
Averages and records for this station are not official NWS values.
T = Trace of Precipitation, MM = Missing Value Source: Averaged Metar Reports

Daily Weather History Graph

Daily Weather History Graph

Search for Another Location

Airport or City:

Trip Planner

Search our weather history database for the weather conditions in past years. The results will help you decide how hot, cold, wet, or windy it might be!

Date:

Astronomy

Nov. 13, 2011 Rise Set
Actual Time 7:04 AM CET 5:11 PM CET
Civil Twilight 6:35 AM CET 5:39 PM CET
Nautical Twilight 6:03 AM CET 6:11 PM CET
Astronomical Twilight 5:32 AM CET 6:43 PM CET
Moon 7:05 PM CET (11/13) 9:22 AM CET (11/13)
Length of Visible Light 11h 03m
Length of Day
10h 06m
Waning Gibbous, 94% of the Moon is Illuminated
Nov 13
Waning Gibbous
Nov 18
Last Quarter
Nov 25
New
Dec 2
First Quarter
Dec 10
Full

Hourly Weather History & Observations

Time (CET) Temp. Dew Point Humidity Pressure Visibility Wind Dir Wind Speed Gust Speed Precip Events Conditions
12:15 AM 55.4 °F 51.8 °F 88% 30.30 in 6.2 mi North 2.3 mph - N/A   Partly Cloudy
12:45 AM 53.6 °F 51.8 °F 94% 30.30 in 6.2 mi North 2.3 mph - N/A   Partly Cloudy
12:55 AM 53.6 °F 51.8 °F 94% 30.30 in 6.2 mi North 2.3 mph - N/A   Partly Cloudy
1:00 AM 54 °F 51 °F 87% 30.33 in 6 mi North 2.3 mph - -   Scattered Clouds
1:15 AM 53.6 °F 51.8 °F 94% 30.30 in 6.2 mi North 2.3 mph - N/A   Scattered Clouds
1:45 AM 51.8 °F 50.0 °F 94% 30.30 in 6.2 mi NNW 3.5 mph - N/A   Partly Cloudy
1:55 AM 51.8 °F 50.0 °F 94% 30.30 in 6.2 mi NNW 3.5 mph - N/A   Partly Cloudy
2:15 AM 51.8 °F 50.0 °F 94% 30.30 in 6.2 mi NNW 3.5 mph - N/A   Partly Cloudy
2:45 AM 51.8 °F 50.0 °F 94% 30.30 in 6.2 mi NNW 4.6 mph - N/A   Partly Cloudy
2:55 AM 51.8 °F 50.0 °F 94% 30.30 in 6.2 mi NNW 4.6 mph - N/A   Partly Cloudy
3:15 AM 51.8 °F 50.0 °F 94% 30.30 in 6.2 mi NNW 4.6 mph - N/A   Partly Cloudy
3:45 AM 51.8 °F 50.0 °F 94% 30.30 in 6.2 mi NW 4.6 mph - N/A   Partly Cloudy
3:55 AM 51.8 °F 50.0 °F 94% 30.30 in 6.2 mi NW 4.6 mph - N/A   Partly Cloudy
4:00 AM 51 °F 49 °F 91% 30.32 in 6 mi NW 4.6 mph - -   Scattered Clouds
4:15 AM 50.0 °F 48.2 °F 94% 30.30 in 6.2 mi NW 2.3 mph - N/A   Partly Cloudy
4:45 AM 50.0 °F 46.4 °F 87% 30.27 in 6.2 mi NW 4.6 mph - N/A   Scattered Clouds
4:55 AM 50.0 °F 46.4 °F 87% 30.27 in 6.2 mi NW 4.6 mph - N/A   Scattered Clouds
5:15 AM 50.0 °F 46.4 °F 87% 30.27 in 6.2 mi NW 4.6 mph - N/A   Scattered Clouds
5:45 AM 51.8 °F 48.2 °F 88% 30.27 in 5.6 mi NW 6.9 mph - N/A   Scattered Clouds
5:55 AM 51.8 °F 48.2 °F 88% 30.27 in 5.6 mi NW 6.9 mph - N/A   Scattered Clouds
6:15 AM 51.8 °F 48.2 °F 88% 30.27 in 5.0 mi NW 6.9 mph - N/A   Scattered Clouds
6:45 AM 51.8 °F 50.0 °F 94% 30.30 in 6.2 mi WNW 3.5 mph - N/A   Mostly Cloudy
6:55 AM 51.8 °F 50.0 °F 94% 30.30 in 6.2 mi WNW 3.5 mph - N/A   Mostly Cloudy
7:00 AM 52 °F 49 °F 86% 30.32 in 7 mi WNW 3.5 mph - -   Mostly Cloudy
7:15 AM 51.8 °F 50.0 °F 94% 30.30 in 6.2 mi WNW 3.5 mph - N/A   Scattered Clouds
7:45 AM 51.8 °F 50.0 °F 94% 30.33 in 6.2 mi NW 5.8 mph - N/A   Scattered Clouds
7:55 AM 51.8 °F 50.0 °F 94% 30.33 in 6.2 mi NW 5.8 mph - N/A   Scattered Clouds
8:15 AM 53.6 °F 50.0 °F 88% 30.33 in 6.2 mi WNW 6.9 mph - N/A   Partly Cloudy
8:45 AM 55.4 °F 51.8 °F 88% 30.33 in 6.2 mi NW 8.1 mph - N/A   Partly Cloudy
8:55 AM 55.4 °F 51.8 °F 88% 30.33 in 6.2 mi NW 8.1 mph - N/A   Partly Cloudy
9:15 AM 57.2 °F 51.8 °F 82% 30.33 in 6.2 mi NW 4.6 mph - N/A   Partly Cloudy
9:45 AM 59.0 °F 53.6 °F 82% 30.33 in 6.2 mi WNW 4.6 mph - N/A   Partly Cloudy
9:55 AM 59.0 °F 53.6 °F 82% 30.33 in 6.2 mi WNW 4.6 mph - N/A   Partly Cloudy
10:15 AM 59.0 °F 53.6 °F 82% 30.33 in 6.2 mi WNW 5.8 mph - N/A   Partly Cloudy
10:45 AM 60.8 °F 53.6 °F 77% 30.33 in 6.2 mi West 4.6 mph - N/A   Partly Cloudy
11:15 AM 62.6 °F 53.6 °F 72% 30.33 in 6.2 mi West 3.5 mph - N/A   Partly Cloudy
11:45 AM 64.4 °F 55.4 °F 73% 30.33 in 6.2 mi SW 5.8 mph - N/A   Partly Cloudy
11:55 AM 64.4 °F 55.4 °F 73% 30.33 in 6.2 mi SW 5.8 mph - N/A   Partly Cloudy
12:15 PM 66.2 °F 53.6 °F 64% 30.30 in 6.2 mi SSW 6.9 mph - N/A   Partly Cloudy
12:45 PM 66.2 °F 55.4 °F 68% 30.30 in 6.2 mi SSW 8.1 mph - N/A   Partly Cloudy
12:55 PM 66.2 °F 55.4 °F 68% 30.30 in 6.2 mi SSW 8.1 mph - N/A   Partly Cloudy
1:00 PM - - %  in - Calm Calm - -  
1:15 PM 66.2 °F 53.6 °F 64% 30.30 in 6.2 mi South 6.9 mph - N/A   Partly Cloudy
2:15 PM 66.2 °F 51.8 °F 60% 30.30 in 6.2 mi South 6.9 mph - N/A   Partly Cloudy
2:45 PM 66.2 °F 50.0 °F 56% 30.30 in 6.2 mi SE 9.2 mph - N/A   Partly Cloudy
3:15 PM 66.2 °F 46.4 °F 49% 30.27 in 6.2 mi SE 6.9 mph - N/A   Partly Cloudy
3:45 PM 66.2 °F 51.8 °F 60% 30.27 in 6.2 mi SE 6.9 mph - N/A   Partly Cloudy
3:55 PM 66.2 °F 51.8 °F 60% 30.27 in 6.2 mi SE 6.9 mph - N/A   Partly Cloudy
4:15 PM 66.2 °F 51.8 °F 60% 30.27 in 6.2 mi East 10.4 mph - N/A   Partly Cloudy
4:45 PM 64.4 °F 53.6 °F 68% 30.30 in 6.2 mi East 9.2 mph - N/A   Partly Cloudy
5:15 PM 64.4 °F 53.6 °F 68% 30.30 in 6.2 mi ENE 12.7 mph - N/A   Partly Cloudy
5:45 PM 60.8 °F 51.8 °F 72% 30.30 in 6.2 mi ENE 8.1 mph - N/A   Partly Cloudy
5:55 PM 60.8 °F 51.8 °F 72% 30.30 in 6.2 mi ENE 8.1 mph - N/A   Partly Cloudy
6:15 PM 60.8 °F 51.8 °F 72% 30.30 in 6.2 mi East 10.4 mph - N/A   Partly Cloudy
6:45 PM 60.8 °F 53.6 °F 77% 30.30 in 6.2 mi East 10.4 mph - N/A   Partly Cloudy
6:55 PM 60.8 °F 53.6 °F 77% 30.30 in 6.2 mi East 10.4 mph - N/A   Partly Cloudy
7:00 PM 60 °F 53 °F 72% 30.33 in 9 mi East 10.4 mph - -   Scattered Clouds
7:15 PM 60.8 °F 51.8 °F 72% 30.30 in 6.2 mi ENE 5.8 mph - N/A   Partly Cloudy
8:15 PM 57.2 °F 51.8 °F 82% 30.33 in 6.2 mi Calm Calm - N/A   Partly Cloudy
8:45 PM 57.2 °F 50.0 °F 77% 30.33 in 6.2 mi NW 3.5 mph - N/A   Partly Cloudy
8:55 PM 57.2 °F 50.0 °F 77% 30.33 in 6.2 mi NW 3.5 mph - N/A   Partly Cloudy
9:15 PM 55.4 °F 42.8 °F 63% 30.30 in 6.2 mi NW 3.5 mph - N/A   Partly Cloudy
9:45 PM 55.4 °F 42.8 °F 63% 30.30 in 6.2 mi NW 3.5 mph - N/A   Partly Cloudy
9:55 PM 55.4 °F 42.8 °F 63% 30.30 in 6.2 mi NW 3.5 mph - N/A   Partly Cloudy
10:00 PM 55 °F 42 °F 52% 30.33 in 6 mi NW 3.5 mph - -   Scattered Clouds
10:15 PM 53.6 °F 44.6 °F 72% 30.30 in 6.2 mi NW 5.8 mph - N/A   Partly Cloudy
10:45 PM 53.6 °F 44.6 °F 72% 30.30 in 6.2 mi NNW 4.6 mph - N/A   Partly Cloudy
10:55 PM 53.6 °F 44.6 °F 72% 30.30 in 6.2 mi NNW 4.6 mph - N/A   Partly Cloudy
11:15 PM 51.8 °F 44.6 °F 76% 30.30 in 6.2 mi NNW 5.8 mph - N/A   Partly Cloudy
11:45 PM 51.8 °F 44.6 °F 76% 30.30 in 6.2 mi NNW 3.5 mph - N/A   Partly Cloudy
11:55 PM 51.8 °F 44.6 °F 76% 30.30 in 6.2 mi NNW 3.5 mph - N/A   Partly Cloudy